Location: Unspecified
(0.0000°N, 0.0000°E)
Time: 16:33:29
(UTC+00:00)

N. Korean satellite - Pass Details

Date: 18 September 2020
Orbit: 455 x 503 km, 97.2° (Epoch: 19 September)

Event Time Altitude Azimuth Distance (km) Brightness Sun altitude
Rises 05:25:42 0° 0° (N) 2,547 10.3 -7.1°
Reaches altitude 10° 05:27:50 10° 354° (N) 1,662 9.2 -6.6°
Maximum altitude 05:31:15 44° 281° (W) 675 6.9 -5.7°
Drops below altitude 10° 05:34:38 10° 208° (SSW) 1,643 9.0 -4.9°
Sets 05:36:44 0° 201° (SSW) 2,515 10.0 -4.3°
